Tracking 27420 objects as of 28-May-2023
HD Live streaming from Space Station
objects crossing your sky now

STARLINK-3637

Track STARLINK-3637 now!
10-day predictions
STARLINK-3637 is classified as:


NORAD ID: 51799
Int'l Code: 2022-017AH
Perigee: 546.2 km
Apogee: 547.6 km
Inclination: 53.2 °
Period: 95.4 minutes
Semi major axis: 6917 km
RCS: Unknown
Launch date: February 25, 2022
Source: United States (US)
Launch site: AIR FORCE WESTERN TEST RANGE (AFWTR)
Your satellite tracking list
Your tracking list is empty




NASA's NSSDC Master Catalog

Two Line Element Set (TLE):
1 51799U 22017AH  23147.50730676  .00000756  00000-0  65571-4 0  9990
2 51799  53.2162 235.4271 0000985  94.6485 265.4619 15.08840237 70361
Source of the keplerian elements: AFSPC